TimeEDT,TemperatureF,Dew PointF,Humidity,Sea Level PressureIn,VisibilityMPH,Wind Direction,Wind SpeedMPH,Gust SpeedMPH,PrecipitationIn,Events,Conditions,WindDirDegrees,DateUTC
12:54 AM,41.0,37.9,89,29.86,6.0,North,8.1,-,0.05,Rain,Light Rain,360,2013-05-25 04:54:00
1:54 AM,41.0,37.9,89,29.84,10.0,NW,8.1,-,0.03,Rain,Light Rain,310,2013-05-25 05:54:00
2:54 AM,41.0,37.9,89,29.83,10.0,WNW,6.9,-,0.01,Rain,Light Rain,300,2013-05-25 06:54:00
3:32 AM,41.0,39.2,93,29.85,10.0,NW,6.9,-,0.00,,Overcast,310,2013-05-25 07:32:00
3:42 AM,41.0,37.4,87,29.85,10.0,NW,10.4,18.4,0.00,,Overcast,320,2013-05-25 07:42:00
3:54 AM,41.0,37.9,89,29.85,10.0,NW,12.7,21.9,0.00,,Overcast,320,2013-05-25 07:54:00
4:46 AM,41.0,37.4,87,29.85,2.5,NW,9.2,-,0.04,Rain,Rain,320,2013-05-25 08:46:00
4:54 AM,41.0,37.9,89,29.84,3.0,NW,6.9,-,0.05,Rain,Light Rain,320,2013-05-25 08:54:00
5:43 AM,41.0,37.4,87,29.85,7.0,NW,10.4,17.3,0.07,Rain,Light Rain,320,2013-05-25 09:43:00
5:54 AM,41.0,37.9,89,29.86,7.0,NW,9.2,-,0.07,Rain,Light Rain,310,2013-05-25 09:54:00
6:54 AM,41.0,37.9,89,29.87,7.0,NW,12.7,24.2,0.04,Rain,Light Rain,320,2013-05-25 10:54:00
7:54 AM,41.0,37.9,89,29.86,7.0,NNW,8.1,23.0,0.00,,Overcast,330,2013-05-25 11:54:00
8:54 AM,41.0,37.9,89,29.86,6.0,NNW,9.2,17.3,0.01,Rain,Light Rain,330,2013-05-25 12:54:00
9:54 AM,42.1,37.9,85,29.85,10.0,NW,11.5,21.9,0.00,Rain,Light Rain,320,2013-05-25 13:54:00
10:54 AM,42.1,37.9,85,29.85,5.0,NW,13.8,23.0,0.04,Rain,Light Rain,320,2013-05-25 14:54:00
11:54 AM,41.0,39.0,93,29.85,8.0,WNW,9.2,17.3,0.05,Rain,Light Rain,300,2013-05-25 15:54:00
11:56 AM,41.0,39.2,93,29.85,7.0,NW,9.2,17.3,0.00,Rain,Light Rain,310,2013-05-25 15:56:00
12:54 PM,41.0,37.9,89,29.85,3.0,WNW,8.1,19.6,0.09,Rain,Light Rain,300,2013-05-25 16:54:00
1:54 PM,42.1,39.0,89,29.85,4.0,NW,9.2,25.3,0.04,Rain,Light Rain,320,2013-05-25 17:54:00
2:54 PM,41.0,37.9,89,29.86,4.0,NW,10.4,21.9,0.02,Rain,Light Rain,320,2013-05-25 18:54:00
3:08 PM,42.8,37.4,81,29.86,4.0,NW,11.5,26.5,0.01,Rain,Light Rain,320,2013-05-25 19:08:00
3:23 PM,41.0,37.4,87,29.86,4.0,NW,10.4,20.7,0.02,Rain,Light Rain,320,2013-05-25 19:23:00
3:39 PM,41.0,37.4,87,29.86,4.0,NNW,10.4,25.3,0.02,Rain,Light Rain,330,2013-05-25 19:39:00
3:54 PM,41.0,37.9,89,29.87,4.0,NW,9.2,20.7,0.03,Rain,Light Rain,320,2013-05-25 19:54:00
4:21 PM,41.0,37.4,87,29.87,3.0,NW,15.0,21.9,0.01,Rain,Light Rain,320,2013-05-25 20:21:00
4:54 PM,39.9,37.0,89,29.88,3.0,NW,13.8,23.0,0.03,Rain,Light Rain,320,2013-05-25 20:54:00
5:09 PM,39.2,37.4,93,29.87,4.0,NW,10.4,27.6,0.02,Rain,Light Rain,310,2013-05-25 21:09:00
5:54 PM,39.9,37.0,89,29.87,3.0,NW,13.8,25.3,0.03,Rain,Light Rain,310,2013-05-25 21:54:00
6:30 PM,41.0,37.4,87,29.87,8.0,NW,12.7,21.9,0.02,Rain,Light Rain,320,2013-05-25 22:30:00
6:54 PM,39.9,37.0,89,29.88,3.0,NW,15.0,23.0,0.03,Rain,Light Rain,320,2013-05-25 22:54:00
7:54 PM,39.9,36.0,86,29.88,4.0,NW,13.8,25.3,0.03,Rain,Light Rain,320,2013-05-25 23:54:00
8:54 PM,39.9,36.0,86,29.88,7.0,NW,11.5,23.0,0.02,Rain,Light Rain,320,2013-05-26 00:54:00
9:54 PM,39.0,36.0,89,29.88,9.0,NW,11.5,25.3,0.02,Rain,Light Rain,310,2013-05-26 01:54:00
10:54 PM,39.9,37.0,89,29.87,7.0,NW,16.1,23.0,0.02,Rain,Light Rain,320,2013-05-26 02:54:00
11:54 PM,39.9,37.0,89,29.85,10.0,WNW,13.8,24.2,0.01,Rain,Light Rain,300,2013-05-26 03:54:00